Location: St. Louis
(38.6270°N, 90.1994°W)
Time: 07:52:25
(UTC-06:00)

Altair - Pass Details

Date: 03 December 2021
Orbit: 1501 x 1683 km, 47.2° (Epoch: 17 January)

Event Time Altitude Azimuth Distance (km) Brightness Sun altitude
Rises 00:21:24 0° 290° (WNW) 4,635 - -72.2°
Reaches altitude 10° 00:25:44 10° 272° (W) 3,653 - -71.9°
Maximum altitude 00:31:09 17° 235° (SW) 3,116 - -71.4°
Drops below altitude 10° 00:36:38 10° 198° (SSW) 3,686 - -70.8°
Sets 00:41:05 0° 180° (S) 4,694 - -70.3°
